LGL471 ELLX-LDSB

Flight info

Callsign LGL471
Flight time 1h 54m
Altitude 23000
Route EXCOS Q763 MAPIG Q760 TOMPI Z729 LBU L173 RIXED Y161 MAH DCT VAVOR DCT RADIZ DCT NUPSO L862 SPL
Aircraft DH8D/M-SDE2E3FGRY/H

Departure

Time 2026-04-28 14:36
Airport Luxembourg-Findel International Airport (ELLX)

Arrival

Time 2026-04-28 16:30
Airport Brač Airport (LDSB)
Time Latitude Longitude Altitude Speed Heading
2026-04-28 14:08 49.63129 6.21426 1230 ft 0 kts 60°
2026-04-28 14:28 49.63122 6.21408 1231 ft 2 kts 60°
2026-04-28 14:28 49.63114 6.21388 1231 ft 2 kts 60°
2026-04-28 14:29 49.63107 6.21368 1231 ft 2 kts 66°
2026-04-28 14:29 49.63107 6.21346 1231 ft 2 kts 115°
2026-04-28 14:29 49.63114 6.21332 1231 ft 1 kts 150°
2026-04-28 14:29 49.63116 6.21331 1232 ft 0 kts 150°
2026-04-28 14:32 49.63081 6.21363 1231 ft 8 kts 148°
2026-04-28 14:32 49.63035 6.21406 1230 ft 6 kts 152°
2026-04-28 14:32 49.62989 6.21363 1231 ft 15 kts 242°
2026-04-28 14:33 49.62938 6.21198 1233 ft 16 kts 243°
2026-04-28 14:33 49.62893 6.21051 1234 ft 14 kts 244°
2026-04-28 14:33 49.62846 6.20898 1235 ft 18 kts 244°
2026-04-28 14:33 49.62781 6.20728 1235 ft 20 kts 226°
2026-04-28 14:34 49.62572 6.20455 1229 ft 15 kts 174°
2026-04-28 14:34 49.62510 6.20505 1229 ft 8 kts 152°
2026-04-28 14:34 49.62465 6.20541 1229 ft 6 kts 153°
2026-04-28 14:35 49.62431 6.20573 1228 ft 3 kts 107°
2026-04-28 14:35 49.62437 6.20594 1229 ft 4 kts 58°
2026-04-28 14:35 49.62572 6.20959 1233 ft 82 kts 58°
2026-04-28 14:35 49.62974 6.22041 1226 ft 143 kts 62°
2026-04-28 14:36 49.63507 6.23458 1485 ft 163 kts 65°
2026-04-28 14:36 49.64089 6.24972 2119 ft 163 kts 63°
2026-04-28 14:36 49.64606 6.26412 2975 ft 150 kts 64°
2026-04-28 14:36 49.64706 6.27969 3396 ft 156 kts 107°
2026-04-28 14:37 49.64144 6.29534 3677 ft 179 kts 117°
2026-04-28 14:37 49.63430 6.31180 4037 ft 194 kts 118°
2026-04-28 14:37 49.62719 6.32961 4600 ft 195 kts 117°
2026-04-28 14:37 49.62021 6.34777 5166 ft 199 kts 117°
2026-04-28 14:38 49.61316 6.36593 5760 ft 200 kts 117°
2026-04-28 14:38 49.60594 6.38437 6294 ft 205 kts 118°
2026-04-28 14:38 49.59833 6.40368 6652 ft 218 kts 118°
2026-04-28 14:38 49.59035 6.42377 7114 ft 225 kts 119°
2026-04-28 14:39 49.58200 6.44472 7549 ft 232 kts 120°
2026-04-28 14:39 49.57354 6.46611 8026 ft 237 kts 117°
2026-04-28 14:39 49.56711 6.48980 8521 ft 241 kts 108°
2026-04-28 14:39 49.56192 6.51429 9034 ft 244 kts 108°
2026-04-28 14:40 49.55662 6.53928 9540 ft 247 kts 108°
2026-04-28 14:40 49.55308 6.55592 9885 ft 249 kts 108°
2026-04-28 14:40 49.54530 6.58979 10573 ft 252 kts 115°
2026-04-28 14:40 49.53678 6.61315 11072 ft 254 kts 121°
2026-04-28 14:41 49.52766 6.63629 11591 ft 255 kts 121°
2026-04-28 14:41 49.51839 6.65984 12107 ft 256 kts 122°
2026-04-28 14:41 49.50925 6.68314 12608 ft 256 kts 121°
2026-04-28 14:41 49.50008 6.70658 13036 ft 260 kts 121°
2026-04-28 14:42 49.49064 6.73078 13456 ft 263 kts 122°
2026-04-28 14:42 49.48119 6.75503 13884 ft 265 kts 122°
2026-04-28 14:42 49.47174 6.77928 14310 ft 267 kts 122°
2026-04-28 14:42 49.46218 6.80380 14735 ft 268 kts 122°
2026-04-28 14:43 49.45265 6.82827 15154 ft 269 kts 122°
2026-04-28 14:43 49.44298 6.85309 15574 ft 270 kts 122°
2026-04-28 14:43 49.43339 6.87767 15976 ft 271 kts 122°
2026-04-28 14:43 49.42364 6.90268 16378 ft 272 kts 122°
2026-04-28 14:44 49.41389 6.92765 16768 ft 273 kts 122°
2026-04-28 14:44 49.40422 6.95238 17146 ft 273 kts 122°
2026-04-28 14:44 49.39438 6.97752 17516 ft 274 kts 122°
2026-04-28 14:44 49.38462 7.00244 17874 ft 274 kts 122°
2026-04-28 14:45 49.37481 7.02748 18235 ft 275 kts 122°
2026-04-28 14:45 49.36495 7.05263 18587 ft 276 kts 122°
2026-04-28 14:45 49.35503 7.07789 18917 ft 276 kts 122°
2026-04-28 14:45 49.34521 7.10288 19224 ft 277 kts 123°
2026-04-28 14:46 49.33519 7.12835 19525 ft 277 kts 123°
2026-04-28 14:46 49.32531 7.15345 19845 ft 278 kts 123°
2026-04-28 14:46 49.31526 7.17895 20138 ft 278 kts 123°
2026-04-28 14:46 49.30537 7.20405 20404 ft 279 kts 123°
2026-04-28 14:47 49.29531 7.22952 20685 ft 279 kts 124°
2026-04-28 14:47 49.28522 7.25506 20960 ft 279 kts 124°
2026-04-28 14:47 49.27529 7.28016 21223 ft 279 kts 124°
2026-04-28 14:47 49.26519 7.30568 21449 ft 279 kts 124°
2026-04-28 14:48 49.25511 7.33109 21673 ft 280 kts 124°
2026-04-28 14:48 49.24498 7.35663 21879 ft 280 kts 124°
2026-04-28 14:48 49.23500 7.38175 22087 ft 281 kts 124°
2026-04-28 14:48 49.22502 7.40757 22278 ft 283 kts 119°
2026-04-28 14:49 49.21876 7.43631 22434 ft 287 kts 104°
2026-04-28 14:49 49.21456 7.46605 22622 ft 288 kts 103°
2026-04-28 14:49 49.21037 7.49602 22807 ft 289 kts 103°
2026-04-28 14:49 49.20617 7.52579 22978 ft 290 kts 103°
2026-04-28 14:50 49.20181 7.55644 23043 ft 296 kts 103°
2026-04-28 14:50 49.19735 7.58753 23055 ft 303 kts 103°
2026-04-28 14:50 49.19281 7.61906 23050 ft 310 kts 104°
2026-04-28 14:50 49.18808 7.65176 23053 ft 317 kts 104°
2026-04-28 14:51 49.18332 7.68454 23060 ft 323 kts 104°
2026-04-28 14:51 49.17835 7.71868 23050 ft 329 kts 104°
2026-04-28 14:51 49.17336 7.75281 23062 ft 334 kts 104°
2026-04-28 14:51 49.16816 7.78766 23058 ft 339 kts 105°
2026-04-28 14:52 49.16273 7.82267 23054 ft 343 kts 105°
2026-04-28 14:52 49.15717 7.85834 23053 ft 347 kts 104°
2026-04-28 14:52 49.15159 7.89411 23055 ft 350 kts 104°
2026-04-28 14:52 49.14592 7.93038 23052 ft 353 kts 104°
2026-04-28 14:53 49.14016 7.96724 23057 ft 355 kts 104°
2026-04-28 14:53 49.13444 8.00364 23052 ft 357 kts 104°
2026-04-28 14:53 49.12860 8.04085 23047 ft 360 kts 104°
2026-04-28 14:53 49.12273 8.07810 23045 ft 362 kts 104°
2026-04-28 14:54 49.11686 8.11529 23049 ft 364 kts 104°
2026-04-28 14:54 49.11094 8.15268 23044 ft 365 kts 104°
2026-04-28 14:54 49.10494 8.19053 23046 ft 367 kts 104°
2026-04-28 14:54 49.09895 8.22819 23041 ft 368 kts 104°
2026-04-28 14:55 49.09291 8.26613 23039 ft 369 kts 104°
2026-04-28 14:55 49.08682 8.30421 23036 ft 369 kts 104°
2026-04-28 14:55 49.08067 8.34205 23043 ft 369 kts 104°
2026-04-28 14:55 49.07450 8.37973 23042 ft 370 kts 104°
2026-04-28 14:56 49.06829 8.41755 23038 ft 370 kts 104°
2026-04-28 14:56 49.05924 8.45420 23018 ft 368 kts 122°
2026-04-28 14:56 49.04427 8.48537 23038 ft 366 kts 130°
2026-04-28 14:56 49.02845 8.51589 23047 ft 367 kts 130°
2026-04-28 14:57 49.01258 8.54637 23043 ft 367 kts 130°
2026-04-28 14:57 49.00230 8.56653 23042 ft 368 kts 128°
2026-04-28 14:57 48.98947 8.61449 23074 ft 369 kts 100°
2026-04-28 14:57 48.98534 8.65269 23045 ft 370 kts 99°
2026-04-28 14:58 48.98135 8.69146 23045 ft 370 kts 99°
2026-04-28 14:58 48.97734 8.73057 23040 ft 370 kts 99°
2026-04-28 14:58 48.97340 8.76875 23046 ft 370 kts 99°
2026-04-28 14:58 48.96938 8.80751 23045 ft 371 kts 99°
2026-04-28 14:59 48.96531 8.84643 23046 ft 371 kts 99°
2026-04-28 14:59 48.96128 8.88477 23050 ft 370 kts 99°
2026-04-28 14:59 48.95723 8.92325 23053 ft 371 kts 99°
2026-04-28 14:59 48.95312 8.96225 23051 ft 371 kts 98°
2026-04-28 15:00 48.94903 9.00122 23044 ft 371 kts 99°
2026-04-28 15:00 48.94497 9.03968 23050 ft 371 kts 98°
2026-04-28 15:00 48.94085 9.07851 23054 ft 371 kts 99°
2026-04-28 15:00 48.93668 9.11774 23048 ft 371 kts 99°
2026-04-28 15:01 48.93258 9.15610 23049 ft 369 kts 99°
2026-04-28 15:01 48.92846 9.19452 23048 ft 369 kts 99°
2026-04-28 15:01 48.92437 9.23253 23038 ft 368 kts 99°
2026-04-28 15:01 48.92024 9.27077 23044 ft 367 kts 99°
2026-04-28 15:02 48.91611 9.30891 23049 ft 366 kts 99°
2026-04-28 15:02 48.91198 9.34716 23049 ft 366 kts 98°
2026-04-28 15:02 48.90875 9.38537 23048 ft 365 kts 96°
2026-04-28 15:02 48.90610 9.42353 23055 ft 365 kts 95°
2026-04-28 15:03 48.90342 9.46195 23056 ft 364 kts 95°
2026-04-28 15:03 48.90070 9.50025 23052 ft 364 kts 95°
2026-04-28 15:03 48.89797 9.53803 23049 ft 364 kts 96°
2026-04-28 15:03 48.89517 9.57631 23059 ft 364 kts 96°
2026-04-28 15:04 48.89237 9.61425 23067 ft 364 kts 96°
2026-04-28 15:04 48.88956 9.65207 23078 ft 363 kts 96°
2026-04-28 15:04 48.88667 9.69061 23077 ft 363 kts 97°
2026-04-28 15:04 48.88382 9.72841 23076 ft 363 kts 97°
2026-04-28 15:05 48.88093 9.76656 23079 ft 363 kts 97°
2026-04-28 15:05 48.87803 9.80447 23074 ft 363 kts 97°
2026-04-28 15:05 48.87509 9.84265 23075 ft 363 kts 97°
2026-04-28 15:05 48.87215 9.88069 23083 ft 363 kts 97°
2026-04-28 15:06 48.86919 9.91884 23082 ft 363 kts 97°
2026-04-28 15:06 48.86623 9.95675 23083 ft 363 kts 97°
2026-04-28 15:06 48.86324 9.99493 23079 ft 363 kts 97°
2026-04-28 15:06 48.86026 10.03268 23087 ft 363 kts 97°
2026-04-28 15:07 48.85725 10.07074 23078 ft 364 kts 97°
2026-04-28 15:07 48.85424 10.10865 23074 ft 364 kts 97°
2026-04-28 15:07 48.85099 10.14673 23075 ft 364 kts 99°
2026-04-28 15:07 48.84208 10.18202 23079 ft 359 kts 124°
2026-04-28 15:08 48.82768 10.21270 23070 ft 358 kts 129°
2026-04-28 15:08 48.81260 10.24328 23075 ft 358 kts 129°
2026-04-28 15:08 48.79768 10.27322 23075 ft 358 kts 130°
2026-04-28 15:08 48.78252 10.30346 23073 ft 359 kts 129°
2026-04-28 15:09 48.76753 10.33327 23072 ft 359 kts 130°
2026-04-28 15:09 48.75230 10.36347 23080 ft 359 kts 129°
2026-04-28 15:09 48.73714 10.39347 23078 ft 359 kts 130°
2026-04-28 15:09 48.72706 10.41337 23076 ft 359 kts 130°
2026-04-28 15:10 48.70688 10.45315 23083 ft 359 kts 130°
2026-04-28 15:10 48.69147 10.48346 23082 ft 359 kts 130°
2026-04-28 15:10 48.67640 10.51308 23076 ft 359 kts 130°
2026-04-28 15:10 48.66121 10.54289 23076 ft 359 kts 129°
2026-04-28 15:11 48.64590 10.57288 23077 ft 359 kts 130°
2026-04-28 15:11 48.63073 10.60257 23073 ft 359 kts 130°
2026-04-28 15:11 48.61538 10.63258 23080 ft 359 kts 130°
2026-04-28 15:11 48.60017 10.66227 23072 ft 358 kts 131°
2026-04-28 15:12 48.58499 10.69188 23075 ft 358 kts 131°
2026-04-28 15:12 48.56970 10.72166 23070 ft 358 kts 131°
2026-04-28 15:12 48.55451 10.75120 23073 ft 358 kts 131°
2026-04-28 15:12 48.53921 10.78093 23069 ft 358 kts 131°
2026-04-28 15:13 48.52402 10.81043 23079 ft 358 kts 131°
2026-04-28 15:13 48.50862 10.84029 23075 ft 359 kts 131°
2026-04-28 15:13 48.49339 10.86979 23075 ft 359 kts 131°
2026-04-28 15:13 48.47804 10.89948 23079 ft 359 kts 131°
2026-04-28 15:14 48.46273 10.92907 23072 ft 360 kts 131°
2026-04-28 15:14 48.44750 10.95848 23077 ft 360 kts 131°
2026-04-28 15:14 48.43213 10.98810 23073 ft 360 kts 131°
2026-04-28 15:14 48.41674 11.01774 23079 ft 360 kts 131°
2026-04-28 15:15 48.40131 11.04744 23078 ft 360 kts 131°
2026-04-28 15:15 48.38580 11.07724 23064 ft 360 kts 131°
2026-04-28 15:15 48.37047 11.10668 23069 ft 360 kts 131°
2026-04-28 15:15 48.35510 11.13615 23074 ft 360 kts 131°
2026-04-28 15:16 48.33966 11.16572 23071 ft 360 kts 131°
2026-04-28 15:16 48.32415 11.19541 23075 ft 360 kts 131°
2026-04-28 15:16 48.30862 11.22510 23083 ft 361 kts 131°
2026-04-28 15:16 48.29328 11.25438 23070 ft 361 kts 131°
2026-04-28 15:17 48.27752 11.28444 23070 ft 361 kts 131°
2026-04-28 15:17 48.26245 11.31412 23074 ft 362 kts 127°
2026-04-28 15:17 48.24932 11.34639 23069 ft 364 kts 122°
2026-04-28 15:17 48.23668 11.37946 23079 ft 365 kts 122°
2026-04-28 15:18 48.22407 11.41241 23061 ft 365 kts 122°
2026-04-28 15:18 48.21147 11.44524 23068 ft 366 kts 122°
2026-04-28 15:18 48.19883 11.47808 23062 ft 366 kts 122°
2026-04-28 15:18 48.18602 11.51129 23055 ft 366 kts 122°
2026-04-28 15:19 48.17329 11.54422 23061 ft 366 kts 122°
2026-04-28 15:19 48.16050 11.57723 23060 ft 366 kts 122°
2026-04-28 15:19 48.14772 11.61016 23045 ft 366 kts 123°
2026-04-28 15:19 48.13490 11.64313 23047 ft 366 kts 123°
2026-04-28 15:20 48.12207 11.67607 23049 ft 366 kts 123°
2026-04-28 15:20 48.10932 11.70877 23047 ft 365 kts 123°
2026-04-28 15:20 48.09666 11.74122 23046 ft 365 kts 123°
2026-04-28 15:20 48.08377 11.77418 23050 ft 365 kts 123°
2026-04-28 15:21 48.07108 11.80661 23049 ft 365 kts 124°
2026-04-28 15:21 48.05823 11.83937 23055 ft 365 kts 123°
2026-04-28 15:21 48.04548 11.87187 23056 ft 365 kts 123°
2026-04-28 15:21 48.03264 11.90453 23045 ft 365 kts 123°
2026-04-28 15:22 48.01983 11.93708 23042 ft 365 kts 123°
2026-04-28 15:22 48.00700 11.96966 23053 ft 365 kts 123°
2026-04-28 15:22 47.99416 12.00219 23050 ft 365 kts 123°
2026-04-28 15:22 47.98129 12.03478 23047 ft 365 kts 123°
2026-04-28 15:23 47.96843 12.06730 23052 ft 365 kts 124°
2026-04-28 15:23 47.95559 12.09975 23044 ft 365 kts 124°
2026-04-28 15:23 47.94265 12.13238 23064 ft 365 kts 124°
2026-04-28 15:23 47.92748 12.16255 23040 ft 358 kts 140°
2026-04-28 15:24 47.90889 12.18674 23044 ft 356 kts 144°
2026-04-28 15:24 47.89005 12.21023 23058 ft 355 kts 145°
2026-04-28 15:24 47.87104 12.23388 23061 ft 356 kts 145°
2026-04-28 15:24 47.85215 12.25739 23054 ft 356 kts 145°
2026-04-28 15:25 47.83300 12.28124 23071 ft 356 kts 145°
2026-04-28 15:25 47.81418 12.30468 23075 ft 356 kts 144°
2026-04-28 15:25 47.79529 12.32821 23076 ft 357 kts 144°
2026-04-28 15:25 47.77610 12.35211 23073 ft 357 kts 144°
2026-04-28 15:26 47.75708 12.37578 23075 ft 357 kts 144°
2026-04-28 15:26 47.73807 12.39944 23076 ft 356 kts 144°
2026-04-28 15:26 47.71914 12.42299 23085 ft 356 kts 144°
2026-04-28 15:26 47.70015 12.44657 23083 ft 356 kts 144°
2026-04-28 15:27 47.68136 12.46990 23083 ft 356 kts 144°
2026-04-28 15:27 47.66253 12.49327 23093 ft 355 kts 144°
2026-04-28 15:27 47.64347 12.51691 23065 ft 355 kts 144°
2026-04-28 15:27 47.62445 12.53994 23067 ft 354 kts 147°
2026-04-28 15:28 47.60438 12.56112 23058 ft 353 kts 150°
2026-04-28 15:28 47.58437 12.58152 23078 ft 352 kts 150°
2026-04-28 15:28 47.56427 12.60199 23097 ft 351 kts 150°
2026-04-28 15:28 47.54395 12.62267 23093 ft 352 kts 150°
2026-04-28 15:29 47.52387 12.64311 23096 ft 352 kts 150°
2026-04-28 15:29 47.50369 12.66365 23103 ft 352 kts 151°
2026-04-28 15:29 47.48367 12.68402 23097 ft 352 kts 150°
2026-04-28 15:29 47.46354 12.70448 23101 ft 352 kts 150°
2026-04-28 15:30 47.44321 12.72513 23100 ft 352 kts 150°
2026-04-28 15:30 47.42321 12.74545 23113 ft 351 kts 150°
2026-04-28 15:30 47.40316 12.76580 23114 ft 350 kts 150°
2026-04-28 15:30 47.38288 12.78636 23131 ft 350 kts 150°
2026-04-28 15:31 47.36281 12.80670 23114 ft 350 kts 150°
2026-04-28 15:31 47.34286 12.82690 23118 ft 349 kts 150°
2026-04-28 15:31 47.32280 12.84718 23120 ft 349 kts 150°
2026-04-28 15:31 47.30288 12.86730 23119 ft 349 kts 150°
2026-04-28 15:32 47.28276 12.88762 23118 ft 349 kts 150°
2026-04-28 15:32 47.26302 12.90753 23121 ft 349 kts 150°
2026-04-28 15:32 47.24302 12.92768 23120 ft 349 kts 150°
2026-04-28 15:32 47.22283 12.94800 23129 ft 348 kts 150°
2026-04-28 15:33 47.20303 12.96792 23139 ft 348 kts 150°
2026-04-28 15:33 47.18280 12.98823 23121 ft 349 kts 150°
2026-04-28 15:33 47.16292 13.00819 23116 ft 349 kts 150°
2026-04-28 15:33 47.14273 13.02844 23113 ft 349 kts 150°
2026-04-28 15:34 47.12276 13.04845 23113 ft 349 kts 150°
2026-04-28 15:34 47.10283 13.06841 23105 ft 349 kts 150°
2026-04-28 15:34 47.08263 13.08861 23102 ft 349 kts 150°
2026-04-28 15:34 47.06287 13.10836 23098 ft 348 kts 149°
2026-04-28 15:35 47.04279 13.12842 23097 ft 348 kts 150°
2026-04-28 15:35 47.00290 13.16818 23097 ft 347 kts 150°
2026-04-28 15:35 46.98293 13.18806 23095 ft 347 kts 149°
2026-04-28 15:36 46.96318 13.20771 23095 ft 346 kts 150°
2026-04-28 15:36 46.94311 13.22765 23098 ft 346 kts 149°
2026-04-28 15:36 46.92323 13.24739 23102 ft 346 kts 149°
2026-04-28 15:36 46.90355 13.26693 23101 ft 345 kts 149°
2026-04-28 15:37 46.88363 13.28665 23106 ft 343 kts 150°
2026-04-28 15:37 46.86389 13.30618 23098 ft 343 kts 150°
2026-04-28 15:37 46.84431 13.32565 23116 ft 337 kts 149°
2026-04-28 15:37 46.82520 13.34458 23118 ft 332 kts 150°
2026-04-28 15:38 46.80601 13.36357 23112 ft 328 kts 150°
2026-04-28 15:38 46.78740 13.38196 23110 ft 325 kts 150°
2026-04-28 15:38 46.76865 13.40046 23113 ft 322 kts 150°
2026-04-28 15:38 46.75015 13.41869 23118 ft 321 kts 150°
2026-04-28 15:39 46.73179 13.43674 23122 ft 323 kts 150°
2026-04-28 15:39 46.71298 13.45521 23117 ft 325 kts 150°
2026-04-28 15:39 46.69428 13.47357 23120 ft 327 kts 150°
2026-04-28 15:39 46.67524 13.49225 23116 ft 329 kts 150°
2026-04-28 15:40 46.65644 13.51068 23112 ft 330 kts 150°
2026-04-28 15:40 46.63734 13.52939 23114 ft 331 kts 150°
2026-04-28 15:40 46.61821 13.54812 23113 ft 332 kts 150°
2026-04-28 15:40 46.59892 13.56699 23111 ft 333 kts 149°
2026-04-28 15:41 46.57973 13.58575 23104 ft 334 kts 150°
2026-04-28 15:41 46.56051 13.60452 23104 ft 334 kts 150°
2026-04-28 15:41 46.54114 13.62342 23100 ft 335 kts 150°
2026-04-28 15:41 46.52185 13.64221 23111 ft 335 kts 149°
2026-04-28 15:42 46.50260 13.66098 23088 ft 335 kts 150°
2026-04-28 15:42 46.48326 13.67983 23099 ft 335 kts 150°
2026-04-28 15:42 46.46400 13.69853 23111 ft 334 kts 150°
2026-04-28 15:42 46.44477 13.71720 23105 ft 334 kts 150°
2026-04-28 15:43 46.42522 13.73620 23087 ft 336 kts 150°
2026-04-28 15:43 46.40607 13.75473 23096 ft 335 kts 150°
2026-04-28 15:43 46.38672 13.77347 23095 ft 336 kts 150°
2026-04-28 15:43 46.36723 13.79238 23096 ft 336 kts 150°
2026-04-28 15:44 46.34785 13.81114 23100 ft 337 kts 150°
2026-04-28 15:44 46.32835 13.82997 23097 ft 337 kts 150°
2026-04-28 15:44 46.30887 13.84877 23092 ft 338 kts 150°
2026-04-28 15:44 46.28924 13.86771 23093 ft 339 kts 150°
2026-04-28 15:45 46.26964 13.88660 23091 ft 339 kts 150°
2026-04-28 15:45 46.25016 13.90536 23086 ft 340 kts 150°
2026-04-28 15:45 46.23038 13.92439 23080 ft 341 kts 150°
2026-04-28 15:45 46.21080 13.94322 23087 ft 341 kts 150°
2026-04-28 15:46 46.19088 13.96234 23090 ft 341 kts 150°
2026-04-28 15:46 46.17117 13.98126 23083 ft 342 kts 150°
2026-04-28 15:46 46.15144 14.00019 23082 ft 342 kts 150°
2026-04-28 15:46 46.13140 14.01938 23080 ft 343 kts 150°
2026-04-28 15:47 46.11171 14.03823 23079 ft 343 kts 150°
2026-04-28 15:47 46.09170 14.05733 23078 ft 347 kts 150°
2026-04-28 15:47 46.07152 14.07655 23072 ft 351 kts 150°
2026-04-28 15:47 46.05116 14.09596 23067 ft 354 kts 150°
2026-04-28 15:48 46.03060 14.11554 23063 ft 357 kts 150°
2026-04-28 15:48 46.00982 14.13533 23062 ft 359 kts 150°
2026-04-28 15:48 45.98879 14.15534 23058 ft 361 kts 150°
2026-04-28 15:48 45.96804 14.17507 23055 ft 363 kts 150°
2026-04-28 15:49 45.94704 14.19503 23058 ft 364 kts 150°
2026-04-28 15:49 45.92590 14.21510 23059 ft 365 kts 150°
2026-04-28 15:49 45.90461 14.23530 23064 ft 366 kts 150°
2026-04-28 15:49 45.88337 14.25544 23060 ft 366 kts 150°
2026-04-28 15:50 45.86216 14.27552 23058 ft 366 kts 150°
2026-04-28 15:50 45.84090 14.29562 23060 ft 367 kts 150°
2026-04-28 15:50 45.81958 14.31578 23064 ft 368 kts 150°
2026-04-28 15:50 45.79827 14.33589 23064 ft 368 kts 150°
2026-04-28 15:51 45.77687 14.35607 23066 ft 369 kts 150°
2026-04-28 15:51 45.75552 14.37620 23062 ft 369 kts 150°
2026-04-28 15:51 45.73402 14.39644 23070 ft 369 kts 150°
2026-04-28 15:51 45.71242 14.41675 23070 ft 369 kts 150°
2026-04-28 15:52 45.69103 14.43686 23072 ft 370 kts 149°
2026-04-28 15:52 45.66953 14.45704 23075 ft 370 kts 150°
2026-04-28 15:52 45.64800 14.47723 23073 ft 370 kts 149°
2026-04-28 15:52 45.62657 14.49732 23078 ft 370 kts 149°
2026-04-28 15:53 45.60506 14.51745 23078 ft 370 kts 150°
2026-04-28 15:53 45.58357 14.53756 23079 ft 371 kts 150°
2026-04-28 15:53 45.56207 14.55764 23079 ft 371 kts 150°
2026-04-28 15:53 45.54037 14.57790 23078 ft 371 kts 150°
2026-04-28 15:54 45.51903 14.59781 23076 ft 371 kts 150°
2026-04-28 15:54 45.49727 14.61809 23076 ft 371 kts 150°
2026-04-28 15:54 45.47594 14.63795 23077 ft 371 kts 150°
2026-04-28 15:54 45.45424 14.65813 23073 ft 371 kts 150°
2026-04-28 15:55 45.43256 14.67827 23074 ft 371 kts 150°
2026-04-28 15:55 45.41099 14.69829 23076 ft 370 kts 150°
2026-04-28 15:55 45.38963 14.71811 23073 ft 370 kts 150°
2026-04-28 15:55 45.36784 14.73830 23077 ft 370 kts 150°
2026-04-28 15:56 45.34638 14.75817 23082 ft 370 kts 150°
2026-04-28 15:56 45.32465 14.77827 23083 ft 370 kts 150°
2026-04-28 15:56 45.30324 14.79806 23082 ft 370 kts 150°
2026-04-28 15:56 45.28183 14.81783 23086 ft 370 kts 150°
2026-04-28 15:57 45.26012 14.83785 23087 ft 369 kts 150°
2026-04-28 15:57 45.23872 14.85758 23085 ft 369 kts 150°
2026-04-28 15:57 45.21726 14.87734 23091 ft 369 kts 150°
2026-04-28 15:57 45.19579 14.89709 23085 ft 370 kts 150°
2026-04-28 15:58 45.17392 14.91718 23086 ft 370 kts 150°
2026-04-28 15:58 45.15245 14.93690 23083 ft 370 kts 150°
2026-04-28 15:58 45.13100 14.95657 23080 ft 370 kts 150°
2026-04-28 15:58 45.10931 14.97645 23080 ft 370 kts 150°
2026-04-28 15:59 45.08768 14.99626 23079 ft 370 kts 150°
2026-04-28 15:59 45.06628 15.01583 23075 ft 369 kts 150°
2026-04-28 15:59 45.04470 15.03556 23076 ft 369 kts 150°
2026-04-28 15:59 45.02319 15.05522 23073 ft 366 kts 150°
2026-04-28 16:00 45.00167 15.07489 23070 ft 363 kts 150°
2026-04-28 16:00 44.98057 15.09415 23070 ft 361 kts 150°
2026-04-28 16:00 44.95970 15.11317 23069 ft 360 kts 150°
2026-04-28 16:00 44.93874 15.13226 23071 ft 358 kts 150°
2026-04-28 16:01 44.91770 15.15139 23069 ft 357 kts 150°
2026-04-28 16:01 44.89679 15.17038 23070 ft 357 kts 150°
2026-04-28 16:01 44.87587 15.18933 23072 ft 358 kts 150°
2026-04-28 16:01 44.85504 15.20816 23070 ft 359 kts 150°
2026-04-28 16:02 44.83408 15.22712 23068 ft 360 kts 150°
2026-04-28 16:02 44.81271 15.24643 23062 ft 361 kts 150°
2026-04-28 16:02 44.79164 15.26547 23061 ft 362 kts 150°
2026-04-28 16:02 44.77056 15.28450 23063 ft 362 kts 150°
2026-04-28 16:03 44.74935 15.30364 23064 ft 362 kts 150°
2026-04-28 16:03 44.72805 15.32285 23065 ft 362 kts 150°
2026-04-28 16:03 44.70680 15.34199 23064 ft 363 kts 150°
2026-04-28 16:03 44.68562 15.36105 23062 ft 363 kts 150°
2026-04-28 16:04 44.66442 15.38012 23061 ft 363 kts 150°
2026-04-28 16:04 44.64334 15.39907 23063 ft 364 kts 150°
2026-04-28 16:04 44.62184 15.41838 23060 ft 364 kts 150°
2026-04-28 16:04 44.60060 15.43743 23061 ft 364 kts 150°
2026-04-28 16:05 44.57915 15.45666 23060 ft 364 kts 150°
2026-04-28 16:05 44.55797 15.47562 23061 ft 364 kts 150°
2026-04-28 16:05 44.53650 15.49483 23059 ft 364 kts 150°
2026-04-28 16:05 44.51521 15.51387 23056 ft 365 kts 150°
2026-04-28 16:06 44.49380 15.53299 23055 ft 365 kts 150°
2026-04-28 16:06 44.47252 15.55198 23057 ft 365 kts 150°
2026-04-28 16:06 44.45100 15.57117 23054 ft 365 kts 150°
2026-04-28 16:06 44.42982 15.59004 23053 ft 365 kts 150°
2026-04-28 16:07 44.40844 15.60907 23051 ft 365 kts 150°
2026-04-28 16:07 44.38705 15.62809 23051 ft 365 kts 150°
2026-04-28 16:07 44.34399 15.66634 23050 ft 365 kts 150°
2026-04-28 16:08 44.32240 15.68549 23051 ft 365 kts 150°
2026-04-28 16:08 44.30106 15.70439 23055 ft 365 kts 150°
2026-04-28 16:08 44.27962 15.72337 23059 ft 365 kts 150°
2026-04-28 16:09 44.23693 15.76112 23061 ft 365 kts 150°
2026-04-28 16:09 44.21540 15.78014 23059 ft 364 kts 150°
2026-04-28 16:09 44.19398 15.79903 23059 ft 364 kts 150°
2026-04-28 16:10 44.15105 15.83686 23051 ft 365 kts 150°
2026-04-28 16:10 44.12956 15.85514 23047 ft 364 kts 153°
2026-04-28 16:10 44.08543 15.88708 23041 ft 363 kts 156°
2026-04-28 16:11 44.04056 15.91905 23034 ft 364 kts 156°
2026-04-28 16:11 43.99541 15.95124 23024 ft 364 kts 156°
2026-04-28 16:12 43.95027 15.98342 23028 ft 364 kts 156°
2026-04-28 16:12 43.92774 15.99947 23024 ft 364 kts 156°
2026-04-28 16:13 43.88301 16.03130 23025 ft 363 kts 155°
2026-04-28 16:13 43.86035 16.04741 23025 ft 363 kts 155°
2026-04-28 16:13 43.81564 16.07916 23031 ft 363 kts 155°
2026-04-28 16:14 43.77055 16.11113 23032 ft 363 kts 155°
2026-04-28 16:14 43.72562 16.14294 23034 ft 363 kts 155°
2026-04-28 16:15 43.68281 16.17951 23019 ft 366 kts 133°
2026-04-28 16:15 43.66771 16.20748 22826 ft 372 kts 125°
2026-04-28 16:15 43.65329 16.23718 21958 ft 371 kts 123°
2026-04-28 16:16 43.62588 16.29520 20830 ft 352 kts 123°
2026-04-28 16:16 43.61281 16.32297 20314 ft 346 kts 123°
2026-04-28 16:17 43.58705 16.37770 19235 ft 339 kts 123°
2026-04-28 16:17 43.57426 16.40489 18710 ft 336 kts 123°
2026-04-28 16:17 43.56167 16.43165 18198 ft 332 kts 123°
2026-04-28 16:17 43.54910 16.45838 17685 ft 329 kts 123°
2026-04-28 16:18 43.53681 16.48449 17191 ft 326 kts 123°
2026-04-28 16:18 43.52453 16.51057 16691 ft 323 kts 123°
2026-04-28 16:18 43.51249 16.53613 16208 ft 320 kts 123°
2026-04-28 16:18 43.49961 16.56098 15644 ft 318 kts 134°
2026-04-28 16:19 43.48163 16.57718 15232 ft 307 kts 158°
2026-04-28 16:19 43.46193 16.58790 14749 ft 304 kts 161°
2026-04-28 16:19 43.44217 16.59821 14282 ft 300 kts 161°
2026-04-28 16:19 43.42286 16.60821 13834 ft 297 kts 161°
2026-04-28 16:20 43.40380 16.61808 13387 ft 294 kts 161°
2026-04-28 16:20 43.38465 16.62799 12940 ft 292 kts 160°
2026-04-28 16:20 43.36577 16.63777 12500 ft 290 kts 160°
2026-04-28 16:20 43.34678 16.64759 12039 ft 287 kts 160°
2026-04-28 16:21 43.32839 16.65712 11608 ft 283 kts 161°
2026-04-28 16:21 43.31019 16.66657 11176 ft 276 kts 160°
2026-04-28 16:21 43.29254 16.67684 10697 ft 271 kts 150°
2026-04-28 16:21 43.27983 16.69469 10320 ft 261 kts 124°
2026-04-28 16:22 43.27012 16.71541 9909 ft 255 kts 122°
2026-04-28 16:22 43.26091 16.73552 9544 ft 248 kts 122°
2026-04-28 16:22 43.25202 16.75528 9134 ft 244 kts 120°
2026-04-28 16:22 43.24769 16.77781 8473 ft 246 kts 84°
2026-04-28 16:23 43.25417 16.79812 8089 ft 233 kts 46°
2026-04-28 16:23 43.26675 16.81142 7759 ft 224 kts 33°
2026-04-28 16:23 43.27971 16.82293 7446 ft 221 kts 32°
2026-04-28 16:23 43.29255 16.83407 7125 ft 218 kts 31°
2026-04-28 16:24 43.30525 16.84495 6782 ft 205 kts 31°
2026-04-28 16:24 43.31675 16.85473 6463 ft 187 kts 31°
2026-04-28 16:24 43.32715 16.86356 6207 ft 165 kts 31°
2026-04-28 16:24 43.33738 16.86987 5940 ft 164 kts
2026-04-28 16:25 43.34760 16.86497 5579 ft 161 kts 313°
2026-04-28 16:25 43.35316 16.85204 5304 ft 153 kts 292°
2026-04-28 16:25 43.35708 16.83900 4981 ft 142 kts 290°
2026-04-28 16:25 43.36060 16.82669 4648 ft 135 kts 290°
2026-04-28 16:26 43.36402 16.81473 4362 ft 137 kts 290°
2026-04-28 16:26 43.36749 16.80246 4085 ft 139 kts 290°
2026-04-28 16:26 43.37096 16.78997 3811 ft 142 kts 290°
2026-04-28 16:26 43.37407 16.77698 3515 ft 143 kts 277°
2026-04-28 16:27 43.37094 16.76498 3197 ft 134 kts 225°
2026-04-28 16:27 43.36399 16.75698 3022 ft 127 kts 218°
2026-04-28 16:27 43.34984 16.74200 2871 ft 128 kts 217°
2026-04-28 16:28 43.34278 16.73476 2836 ft 127 kts 217°
2026-04-28 16:28 43.33557 16.72749 2761 ft 130 kts 216°
2026-04-28 16:28 43.32832 16.72034 2596 ft 129 kts 215°
2026-04-28 16:28 43.32092 16.71338 2426 ft 127 kts 214°
2026-04-28 16:29 43.30629 16.69984 2134 ft 125 kts 215°
2026-04-28 16:29 43.29196 16.68575 1760 ft 127 kts 213°
2026-04-28 16:30 43.28530 16.67933 1718 ft 93 kts 216°
2026-04-28 16:30 43.28150 16.67567 1740 ft 38 kts 217°
2026-04-28 16:30 43.28080 16.67475 1744 ft 8 kts 237°
2026-04-28 16:30 43.28076 16.67494 1744 ft 7 kts 39°
2026-04-28 16:31 43.28156 16.67571 1740 ft 19 kts 36°
2026-04-28 16:31 43.28292 16.67704 1733 ft 28 kts 36°
2026-04-28 16:31 43.28464 16.67870 1722 ft 32 kts 35°
2026-04-28 16:31 43.28634 16.68035 1712 ft 26 kts 35°
2026-04-28 16:32 43.28702 16.68080 1709 ft 6 kts 324°
2026-04-28 16:32 43.28758 16.67985 1710 ft 5 kts 332°
2026-04-28 16:32 43.28795 16.68007 1709 ft 9 kts 37°
2026-04-28 16:33 43.28820 16.68002 1709 ft 5 kts 300°
2026-04-28 16:33 43.28835 16.67971 1712 ft 5 kts 304°
2026-04-28 16:33 43.28840 16.67964 1712 ft 0 kts 326°
2026-04-28 16:33 43.28851 16.67982 1711 ft 5 kts 109°
2026-04-28 16:34 43.28850 16.67986 1711 ft 0 kts 107°